[[[{"header":{"parameterUnit":"kt","parameterCategory":2,"dx":1,"dy":1,"la1":30.253999710083008,"la2":30.299108505249023,"lo1":-89.0895004272461,"lo2":-89.04439544677734,"nx":28,"ny":28,"refTime":"2022-10-23T21:00:00:Z","depth":0,"parameterNumber":1,"parameterNumberName":"U-component_of_WINDS"},"data":[-6.5961,-6.6074,-6.6123,-6.6275,-6.6345,-6.6458,-6.6514,-6.6593,-6.6668,-6.681,-6.6901,-6.6964,-6.706,-6.7182,-6.7284,-6.7311,-6.735,-6.7355,-6.7384,-6.7318,-6.7312,-6.7306,-6.7281,-6.7363,-6.7363,-6.7445,-6.7446,-6.7447,-6.5909,-6.5978,-6.6073,-6.6197,-6.628,-6.6304,-6.6407,-6.6474,-6.6575,-6.6669,-6.6761,-6.6892,-6.7001,-6.7098,-6.7213,-6.7269,-6.7288,-6.7296,-6.7292,-6.7307,-6.7238,-6.7211,-6.7279,-6.7279,-6.7279,-6.7279,-6.7279,-6.7279,-6.5826,-6.5892,-6.5995,-6.6099,-6.6175,-6.6259,-6.6332,-6.6406,-6.65,-6.6624,-6.6665,-6.6782,-6.6886,-6.7049,-6.7116,-6.721,-6.7209,-6.7235,-6.7241,-6.7246,-6.7244,-6.7117,-6.7232,-6.7232,-6.7232,-6.7232,-6.7232,0,-6.578,-6.5816,-6.591,-6.6019,-6.6097,-6.6187,-6.6278,-6.6324,-6.6419,-6.6493,-6.6606,-6.6679,-6.6825,-6.6937,-6.7056,-6.7122,-6.7156,-6.7166,-6.7183,-6.7163,-6.713,-6.7148,-6.7032,-6.7161,-6.7161,-6.7161,-6.716,-6.716,-6.5699,-6.5771,-6.5903,-6.5963,-6.6024,-6.612,-6.6187,-6.6265,-6.6333,-6.6458,-6.6513,-6.6627,-6.6721,-6.6895,-6.6983,-6.7093,-6.711,-6.7153,-6.7126,-6.7105,-6.711,-6.7104,-6.7111,-6.7156,-6.7157,-6.7157,-6.7157,0,-6.5649,-6.5728,-6.5855,-6.5979,-6.6013,-6.6084,-6.6192,-6.6262,-6.6327,-6.6433,-6.6463,-6.6565,-6.6674,-6.6756,-6.6898,-6.6937,-6.7059,-6.7074,-6.7023,-6.703,-6.7077,-6.7071,-6.7216,-6.7239,-6.7156,-6.7157,-6.7158,0,-6.5611,-6.5702,-6.5814,-6.5884,-6.5989,-6.6064,-6.6166,-6.6232,-6.6322,-6.6406,-6.6458,-6.6536,-6.6628,-6.6719,-6.6776,-6.6891,-6.6918,-6.6954,-6.6968,-6.6949,-6.6944,-6.6985,-6.698,-6.6998,-6.6998,-6.6997,-6.6996,0,-6.5522,-6.569,-6.5804,-6.5855,-6.5996,-6.6049,-6.611,-6.6212,-6.6277,-6.6376,-6.6419,-6.6529,-6.6589,-6.6674,-6.6747,-6.6725,-6.6889,-6.6875,-6.6926,-6.6924,-6.6956,-6.6952,-6.7063,-6.6995,-6.6995,-6.6995,-6.6994,0,-6.5502,-6.5598,-6.5751,-6.587,-6.5911,-6.5987,-6.6099,-6.6182,-6.6286,-6.6326,-6.6405,-6.6448,-6.6554,-6.6534,-6.6683,-6.6634,-6.6691,-6.6736,-6.6741,-6.6753,-6.6727,-6.6776,-6.6875,-6.6887,-6.6768,-6.6766,-6.6764,0,-6.5379,-6.5555,-6.562,-6.5764,-6.5856,-6.5905,-6.5992,-6.6081,-6.6142,-6.623,-6.6299,-6.6399,-6.6401,-6.6443,-6.6507,-6.6581,-6.6645,-6.6575,-6.6702,-6.6706,-6.6671,-6.6763,-6.6756,-6.6845,-6.6741,-6.6744,-6.6746,0,-6.5293,-6.5463,-6.5484,-6.5545,-6.5674,-6.5751,-6.585,-6.5965,-6.602,-6.6115,-6.62,-6.6344,-6.6351,-6.642,-6.6467,-6.6528,-6.6604,-6.6527,-6.6531,-6.6537,-6.6737,-6.673,-6.6744,-6.6622,-6.6625,-6.6628,-6.6727,0,-6.5244,-6.5341,-6.5402,-6.5534,-6.5606,-6.5701,-6.5784,-6.585,-6.5887,-6.5948,-6.6075,-6.617,-6.6288,-6.6326,-6.6363,-6.6478,-6.6471,-6.6477,-6.6461,-6.6521,-6.6556,-6.6571,-6.6403,-6.6403,-6.6403,-6.6403,0,0,-6.5105,-6.5246,-6.5314,-6.5411,-6.5476,-6.5525,-6.5619,-6.5689,-6.5827,-6.5872,-6.5864,-6.6079,-6.6156,-6.6301,-6.6326,-6.6374,-6.6403,-6.6378,-6.6492,-6.6502,-6.6511,-6.6547,-6.6561,-6.6403,-6.6403,-6.6403,-6.6403,0,-6.5103,-6.5179,-6.527,-6.5345,-6.5457,-6.5518,-6.5539,-6.566,-6.5703,-6.5828,-6.5867,-6.5953,-6.6122,-6.6198,-6.6259,-6.6363,-6.6387,-6.6393,-6.642,-6.649,-6.6499,-6.6508,-6.6545,-6.6557,-6.6403,-6.6403,-6.6403,0,-6.5032,-6.512,-6.5173,-6.5322,-6.5396,-6.5489,-6.5493,-6.5592,-6.5662,-6.5711,-6.5833,-6.5897,-6.6006,-6.6133,-6.6192,-6.6187,-6.6368,-6.6326,-6.6328,-6.6336,-6.6408,-6.6419,-6.6429,-6.6295,-6.6294,-6.6294,0,0,-6.5019,-6.511,-6.5228,-6.5327,-6.5371,-6.5462,-6.552,-6.5562,-6.5658,-6.5696,-6.5778,-6.5871,-6.597,-6.6034,-6.6131,-6.6258,-6.6287,-6.6309,-6.6315,-6.6318,-6.6328,-6.6401,-6.6412,-6.6291,-6.6291,-6.6291,0,0,-6.5013,-6.5153,-6.5172,-6.5298,-6.5387,-6.551,-6.5568,-6.5595,-6.569,-6.5689,-6.5765,-6.5793,-6.5913,-6.5974,-6.5927,-6.6127,-6.611,-6.6123,-6.6082,-6.609,-6.6095,-6.6077,-6.5944,0,0,0,0,0,-6.5053,-6.5136,-6.5151,-6.5185,-6.5373,-6.5501,-6.5526,-6.559,-6.5576,-6.5621,-6.5694,-6.5716,-6.5964,-6.5925,-6.5958,-6.6008,-6.6255,-6.6262,-6.6268,-6.6245,-6.6252,-6.6258,0,0,0,0,0,0,-6.5066,-6.5107,-6.515,-6.5274,-6.5318,-6.5499,-6.549,-6.5509,-6.5573,-6.5575,-6.5701,-6.572,-6.5777,-6.5913,-6.5941,-6.5988,-6.5934,-6.6258,-6.6263,-6.6268,-6.6248,-6.6253,-6.6258,0,0,0,0,0,-6.5077,-6.511,-6.5395,-6.5274,-6.5311,-6.5416,-6.5487,-6.5504,-6.5554,-6.5666,-6.5685,-6.5596,-6.5777,-6.5805,-6.593,-6.5973,-6.5915,-6.5926,-6.6261,-6.6265,-6.6269,-6.6251,0,0,0,0,0,0,-6.5086,-6.5127,-6.5404,-6.5418,-6.5247,-6.5407,-6.5435,-6.5498,-6.5642,-6.5662,-6.5564,-6.5564,-6.5778,-6.58,-6.5821,-6.5964,-6.59,-6.591,-6.5917,-6.6264,-6.6268,-6.6271,0,0,0,0,0,0,-6.511,-6.5138,-6.5411,-6.5373,-6.5384,-6.5399,-6.5423,-6.5538,-6.5643,-6.5532,-6.5537,-6.5563,-6.5746,-6.5796,-6.5813,-6.599,-6.5888,-6.5898,-6.5905,-6.5909,-6.6267,-6.627,0,0,0,0,0,0,-6.5123,-6.5147,-6.537,-6.5378,-6.5387,-6.5547,-6.5502,-6.5692,-6.5609,-6.5525,-6.5603,-6.5601,-6.5742,-6.576,-6.5807,-6.5977,-6.5987,-6.5888,-6.5895,-6.59,-6.5903,0,0,0,0,0,0,0,-6.5134,-6.4954,-6.5322,-6.5382,-6.5389,-6.5546,-6.555,-6.5554,-6.5608,-6.5606,-6.5604,-6.5602,-6.583,-6.5841,-6.5852,-6.5966,0,0,-6.5887,-6.5892,0,0,0,0,0,0,0,0,-6.4945,-6.4952,-6.5322,-6.5325,-6.5328,-6.5547,-6.555,-6.5553,-6.5608,-6.5606,-6.5604,-6.5603,-6.5833,-6.5842,-6.5851,0,0,0,0,0,0,0,0,0,0,0,0,0,0,0,-6.5323,-6.5325,0,-6.5547,-6.555,-6.5552,-6.5608,-6.5606,-6.5605,-6.5603,-6.5836,-6.5843,-6.585,0,0,0,0,0,0,0,0,0,0,0,0,0,0,0,0,0,0,0,0,0,0,0,0,0,0,0,0,0,0,0,0,0,0,0,0,0,0,0,0,0,0,0,0,0,0,0,0,0,0,0,0,0,0,0,0,0,0,0,0,0,0,0,0,0,0,0,0,0]}],[{"header":{"parameterUnit":"kt","parameterCategory":2,"dx":1,"dy":1,"la1":30.253999710083008,"la2":30.299108505249023,"lo1":-89.0895004272461,"lo2":-89.04439544677734,"nx":28,"ny":28,"refTime":"2022-10-23T21:00:00:Z","depth":0,"parameterNumber":2,"parameterNumberName":"V-component_of_WINDS"},"data":[10.4147,10.4322,10.4346,10.4556,10.4612,10.476,10.482,10.49,10.4969,10.5147,10.5254,10.5293,10.537,10.5502,10.5618,10.5632,10.568,10.5728,10.5737,10.5504,10.5473,10.5443,10.5404,10.5738,10.5738,10.5976,10.5979,10.598,10.3983,10.4041,10.4158,10.4287,10.4388,10.4357,10.4456,10.4542,10.4674,10.4759,10.4864,10.5022,10.5148,10.5209,10.5334,10.5416,10.5408,10.5449,10.5444,10.5456,10.5208,10.5166,10.5454,10.5454,10.5454,10.5454,10.5454,10.5454,10.3691,10.3794,10.3884,10.4011,10.4081,10.4167,10.4269,10.4314,10.4427,10.456,10.4562,10.4711,10.4798,10.4957,10.5014,10.5131,10.5089,10.5139,10.5152,10.5165,10.5179,10.4839,10.5152,10.5152,10.5151,10.515,10.515,0,10.3484,10.3497,10.3607,10.3728,10.382,10.3914,10.4003,10.4066,10.4093,10.4185,10.432,10.4401,10.4561,10.4689,10.4809,10.4857,10.4832,10.483,10.4865,10.4868,10.4858,10.4869,10.4465,10.482,10.4817,10.4815,10.4813,10.4812,10.3193,10.3309,10.3411,10.3487,10.3539,10.366,10.3737,10.3752,10.3832,10.3942,10.4031,10.416,10.4263,10.4473,10.452,10.4639,10.4627,10.4761,10.4644,10.4644,10.4632,10.4626,10.4639,10.4783,10.4787,10.479,10.4792,0,10.3029,10.3061,10.3245,10.3333,10.3358,10.3479,10.3553,10.3655,10.3685,10.3829,10.3864,10.391,10.4041,10.4066,10.4218,10.4227,10.443,10.4413,10.4402,10.44,10.4525,10.4514,10.492,10.4975,10.4626,10.463,10.4632,0,10.2793,10.2943,10.2982,10.3087,10.3255,10.3264,10.3429,10.3471,10.3543,10.3657,10.3631,10.3737,10.3752,10.3863,10.3876,10.4045,10.4072,10.4089,10.4091,10.4093,10.4091,10.4134,10.4119,10.4087,10.4085,10.4083,10.4081,0,10.2533,10.2725,10.2896,10.2945,10.305,10.313,10.3178,10.3257,10.333,10.3428,10.3476,10.3589,10.3651,10.374,10.3756,10.3676,10.3961,10.3854,10.3979,10.3979,10.404,10.4036,10.4389,10.4079,10.4078,10.4077,10.4077,0,10.2346,10.2445,10.2686,10.2774,10.2823,10.2934,10.3047,10.3147,10.3232,10.3248,10.3324,10.3308,10.3454,10.3348,10.355,10.3442,10.3506,10.3535,10.3544,10.3558,10.3438,10.3637,10.3969,10.4006,10.3574,10.357,10.3566,0,10.2041,10.229,10.2298,10.2526,10.2644,10.2607,10.273,10.2805,10.2835,10.294,10.2972,10.309,10.3015,10.3055,10.3152,10.319,10.333,10.3171,10.3324,10.333,10.3306,10.3612,10.3656,10.3894,10.3512,10.3518,10.3522,0,10.1807,10.1931,10.197,10.2027,10.2125,10.2222,10.2363,10.2481,10.2551,10.2635,10.2755,10.2918,10.287,10.2934,10.2931,10.3031,10.3236,10.2963,10.2965,10.3014,10.3486,10.3528,10.3568,10.3212,10.3219,10.3224,10.348,0,10.1525,10.165,10.1757,10.1877,10.1955,10.2096,10.2119,10.2198,10.2188,10.2215,10.2388,10.2451,10.2569,10.2618,10.2606,10.2826,10.2793,10.2737,10.2634,10.2833,10.2919,10.2953,10.2506,10.2503,10.2501,10.2499,0,0,10.1227,10.1405,10.1406,10.1541,10.1607,10.1563,10.1712,10.177,10.1887,10.1935,10.1877,10.2117,10.2169,10.2376,10.244,10.2486,10.2528,10.2455,10.2738,10.2764,10.2789,10.288,10.2915,10.2494,10.2493,10.2492,10.2492,0,10.1128,10.1182,10.1328,10.1389,10.1478,10.1498,10.1534,10.1613,10.1636,10.1803,10.1763,10.1868,10.2055,10.2118,10.2174,10.2432,10.2394,10.2465,10.2598,10.2712,10.2742,10.2768,10.2863,10.2897,10.2486,10.2486,10.2486,0,10.0903,10.0962,10.1033,10.1177,10.1234,10.1353,10.1252,10.1381,10.147,10.141,10.1576,10.1613,10.1696,10.1887,10.1972,10.1922,10.2272,10.2162,10.2178,10.2188,10.2299,10.2335,10.2367,10.1947,10.1945,10.1943,0,0,10.0814,10.0928,10.0992,10.1157,10.1196,10.1226,10.129,10.1285,10.1361,10.1391,10.1437,10.1511,10.1621,10.1692,10.1795,10.2001,10.202,10.2095,10.212,10.2141,10.2162,10.2279,10.2314,10.1936,10.1936,10.1935,0,0,10.0771,10.0852,10.0827,10.102,10.1095,10.1167,10.1267,10.1238,10.1332,10.1318,10.1314,10.1333,10.1511,10.1547,10.1447,10.1759,10.1656,10.168,10.1728,10.1761,10.1786,10.1773,10.1349,0,0,0,0,0,10.0679,10.0842,10.0819,10.0854,10.1032,10.118,10.1203,10.1204,10.1133,10.1213,10.1247,10.12,10.1493,10.1404,10.1439,10.155,10.1841,10.1858,10.1874,10.1984,10.2017,10.2046,0,0,0,0,0,0,10.0693,10.0736,10.0814,10.0893,10.0933,10.1174,10.1055,10.1059,10.1124,10.1113,10.1195,10.1203,10.1205,10.1386,10.1418,10.1524,10.1338,10.1847,10.1862,10.1875,10.1995,10.2023,10.2046,0,0,0,0,0,10.0704,10.0739,10.1024,10.0891,10.0926,10.0966,10.1048,10.1051,10.1101,10.1152,10.1158,10.1096,10.1208,10.1234,10.1405,10.1509,10.1316,10.1328,10.1857,10.1868,10.1878,10.2009,0,0,0,0,0,0,10.0712,10.0742,10.1031,10.1042,10.0828,10.0953,10.0972,10.1044,10.1135,10.1143,10.1051,10.1042,10.1212,10.1232,10.1252,10.1505,10.1299,10.1311,10.1318,10.1865,10.1874,10.1882,0,0,0,0,0,0,10.0724,10.0752,10.1037,10.0958,10.0959,10.094,10.0958,10.1101,10.1137,10.1029,10.1024,10.1046,10.1181,10.1231,10.1247,10.147,10.1285,10.1297,10.1304,10.1309,10.1872,10.1879,0,0,0,0,0,0,10.0735,10.076,10.0955,10.0956,10.0957,10.1076,10.1066,10.1249,10.1071,10.1026,10.1055,10.1047,10.1181,10.1197,10.1243,10.146,10.1468,10.1286,10.1293,10.1299,10.1302,0,0,0,0,0,0,0,10.0745,10.0583,10.0968,10.0955,10.0955,10.114,10.1143,10.1146,10.1069,10.1063,10.1057,10.1051,10.122,10.1233,10.1245,10.1452,0,0,10.1284,10.129,0,0,0,0,0,0,0,0,10.0573,10.0581,10.0969,10.0971,10.0973,10.1141,10.1143,10.1146,10.1068,10.1063,10.1058,10.1053,10.1224,10.1234,10.1244,0,0,0,0,0,0,0,0,0,0,0,0,0,0,0,10.0969,10.0971,0,10.1141,10.1143,10.1145,10.1067,10.1063,10.1059,10.1055,10.1226,10.1235,10.1243,0,0,0,0,0,0,0,0,0,0,0,0,0,0,0,0,0,0,0,0,0,0,0,0,0,0,0,0,0,0,0,0,0,0,0,0,0,0,0,0,0,0,0,0,0,0,0,0,0,0,0,0,0,0,0,0,0,0,0,0,0,0,0,0,0,0,0,0,0]}]]]